Location: Givhans Ferry State Park
(33.0284°N, 80.3868°W)
Time: 14:10:51
(UTC-04:00)

ARIANE 6 FM1 Upper Stage - Visible Passes

Search period start: 08 June 2026 00:00
Search period end: 18 June 2026 00:00
Orbit: 528 x 599 km, 62.0° (Epoch: 8 June)

Date Brightness Start Highest point End Pass type
(mag) Time Alt. Az. Time Alt. Az. Time Alt. Az.
8 Jun 3.9 03:45:10 31° NW 03:45:10 31° NW 03:48:37 10° N visible
9 Jun 5.5 02:08:29 13° ENE 02:08:29 13° ENE 02:09:01 10° NE visible
9 Jun 4.5 03:44:26 22° NW 03:44:26 22° NW 03:47:34 10° N visible
10 Jun 5.3 02:07:42 16° NE 02:07:42 16° NE 02:08:38 10° NE visible
10 Jun 4.9 03:43:38 15° NW 03:43:47 15° NW 03:46:17 10° N visible
11 Jun 5.2 02:06:51 19° NE 02:06:51 19° NE 02:08:04 10° NE visible
11 Jun 5.3 03:42:48 11° NW 03:43:18 11° NW 03:44:19 10° NNW visible
12 Jun 5.1 02:05:56 21° NNE 02:05:56 21° NNE 02:07:23 10° NNE visible
13 Jun 5.1 02:04:59 21° N 02:04:59 21° N 02:06:34 10° NNE visible
14 Jun 5.1 02:03:58 20° N 02:03:58 20° N 02:05:37 10° N visible
15 Jun 5.3 02:02:52 17° NNW 02:02:52 17° NNW 02:04:31 10° N visible
16 Jun 5.4 02:01:41 14° NNW 02:01:41 14° NNW 02:03:09 10° NNW visible
17 Jun 5.4 00:24:30 13° NE 00:24:30 13° NE 00:25:02 10° NE visible
17 Jun 5.7 02:00:25 10° NW 02:00:25 10° NW 02:00:42 10° NW visible
